Regional Weather Roundup
Issued by NWS

Home | Current Version | Previous Version | Graphics & Text | Print | Product List | Glossary On
Versions: 1 2 3 4 5 6 7 8 9 10 11 12 13 14 15 16 17 18 19 20 21 22 23 24 25 26 27 28 29 30 31 32 33 34 35 36 37 38 39 40 41 42 43 44 45 46 47 48 49 50
926
ASUS43 KTOP 250408
RWRKS

WEATHER ROUNDUP FOR KANSAS
NATIONAL WEATHER SERVICE GOODLAND KS
1100 PM CDT TUE MAY 24 2016

NOTE:  "FAIR" INDICATES FEW OR NO CLOUDS BELOW 12,000 FEET WITH NO
SIGNIFICANT WEATHER AND/OR OBSTRUCTIONS TO VISIBILITY.

KSZ001>006-013>018-027>032-041>047-250500-
NORTHWEST KANSAS

CITY           SKY/WX    TMP DP  RH WIND       PRES   REMARKS
GOODLAND       CLEAR     58  54  86 E8        29.76F
HAYS           CLOUDY    55  52  88 E17G31    29.81R
HILL CITY      CLOUDY    66  53  63 E13       29.78R
RUSSELL        CLOUDY    61  58  90 E20       29.82F THUNDER
$$

KSZ061>065-074>080-084>089-250500-
SOUTHWEST KANSAS

CITY           SKY/WX    TMP DP  RH WIND       PRES   REMARKS
DODGE CITY     CLOUDY    63  61  93 E17G25    29.81R
ELKHART          N/A     70  64  81 S12         N/A
GARDEN CITY    CLEAR     69  60  73 SE10      29.76R
GREAT BEND     CLOUDY    63  52  67 S29       29.81S
LIBERAL        CLEAR     73  63  68 S16       29.79R
PRATT          CLOUDY    57  56  97 E8        29.86F THUNDER
$$

KSZ066>073-081>083-090>101-250500-
SOUTHEAST KANSAS

CITY           SKY/WX    TMP DP  RH WIND       PRES   REMARKS
CHANUTE        CLOUDY    72  66  81 S6        29.89R
COFFEYVILLE    MOCLDY    74  64  71 S13G23    29.87F
HUTCHINSON     TSTM      63  61  93 E10       29.91R FOG
MEDICINE LODGE   N/A     75  68  78 SE12G20   29.84R
NEWTON         CLOUDY    70  63  78 SW21G28   29.93R THUNDER
PARSONS        CLOUDY    72  68  87 S5        29.88F
WICHITA INTL   CLOUDY    74  62  66 S6        29.88R THUNDER
WICHITA JABRA  TSTM      73  63  70 S12       29.88R
WICHITA MCCONL CLOUDY    73  62  68 S9G18     29.87R
WINFIELD       LGT RAIN  72  66  81 S21G28    29.87R
$$

KSZ007>012-019>026-033>040-048>060-102>105-250500-
NORTHEAST KANSAS

CITY           SKY/WX    TMP DP  RH WIND       PRES   REMARKS
CONCORDIA      TSTM      62  57  83 SW24G39   29.93R
EMPORIA        CLOUDY    72  68  87 SE9       29.88R
LAWRENCE       CLOUDY    73  69  87 SE9       29.88R
MANHATTAN      CLOUDY    77  69  76 S20G26    29.80F
MARYSVILLE     TSTM      70  68  94 SE9       29.83F
OLATHE IND     CLOUDY    72  68  87 SE10      29.90S
OLATHE EXE     CLOUDY    71  67  87 SE12      29.90S
SALINA         TSTM      63  60  90 W22G29    29.97R FOG
TOPEKA BILLARD CLOUDY    74  69  85 S6        29.88R
TOPEKA FORBES  CLOUDY    73  70  90 CALM      29.89R
$$




USA.gov is the U.S. government's official web portal to all federal, state and local government web resources and services.